KC5EZZ-2 Weather Reports


time (UTC)temp
F
wind
direction
speed
knots
gust
knots
rain 1hr
in
rain 24hr
in
rain mn
in
humidity
%
barometer
mb
20260507005249 70 46 5.2 4.3 0.00 0.00 0.00
20260507004746 70 38 7.8 9.6 0.00 0.00 0.00
20260507003746 70 89 7.0 7.0 0.00 0.00 0.00
20260507003244 70 45 8.7 7.8 0.00 0.00 0.00
20260507002744 70 44 7.8 7.0 0.00 0.00 0.00
20260507002244 70 52 9.6 9.6 0.00 0.00 0.00
20260507001243 70 38 9.6 9.6 0.00 0.00 0.00
20260507000743 71 42 8.7 7.0 0.00 0.00 0.00
20260506235741 71 65 7.0 8.7 0.00 0.00 0.00
20260506234738 71 80 7.0 7.0 0.00 0.00 0.00
20260506234239 71 63 7.8 4.3 0.00 0.00 0.00
20260506233739 71 53 7.0 7.0 0.00 0.00 0.00
20260506233237 71 53 6.1 6.1 0.00 0.00 0.00
20260506232737 71 27 7.0 6.1 0.00 0.00 0.00
20260506232238 71 60 5.2 5.2 0.00 0.00 0.00
20260506231735 71 62 7.0 5.2 0.00 0.00 0.00
20260506231236 71 51 7.8 8.7 0.00 0.00 0.00
20260506230736 72 60 7.0 5.2 0.00 0.00 0.00
20260506230234 72 27 4.3 6.1 0.00 0.00 0.00
20260506225734 72 65 6.1 6.1 0.00 0.00 0.00
20260506225235 72 108 7.0 5.2 0.00 0.00 0.00
20260506224732 72 101 5.2 5.2 0.00 0.00 0.00
20260506224233 72 42 5.2 10.4 0.00 0.00 0.00
20260506223733 72 94 6.1 6.1 0.00 0.00 0.00
20260506222731 72 89 5.2 5.2 0.00 0.00 0.00
20260506222232 72 56 5.2 4.3 0.00 0.00 0.00
20260506221729 72 15 6.1 6.1 0.00 0.00 0.00
20260506221230 72 41 4.3 5.2 0.00 0.00 0.00
20260506220730 72 82 4.3 4.3 0.00 0.00 0.00
20260506220228 72 100 2.6 3.5 0.00 0.00 0.00
20260506215728 72 39 2.6 0.9 0.00 0.00 0.00
20260506215229 71 8 2.6 0.9 0.00 0.00 0.00
20260506214726 71 42 2.6 0.0 0.00 0.00 0.00
20260506214227 72 35 0.0 5.2 0.00 0.00 0.00
20260506213727 72 60 7.8 5.2 0.00 0.00 0.00
20260506213225 72 104 3.5 3.5 0.00 0.00 0.00
20260506212725 71 28 4.3 0.0 0.00 0.00 0.00
20260506212226 71 32 7.0 7.0 0.00 0.00 0.00
20260506211723 70 39 4.3 4.3 0.00 0.00 0.00
20260506211224 70 11 4.3 7.8 0.00 0.00 0.00
20260506210724 69 42 4.3 2.6 0.00 0.00 0.00
20260506210222 70 59 3.5 1.7 0.00 0.00 0.00
20260506205722 70 55 4.3 6.1 0.00 0.00 0.00
20260506205223 70 28 5.2 4.3 0.00 0.00 0.00
20260506204720 70 65 5.2 2.6 0.00 0.00 0.00
20260506204221 69 72 7.0 7.0 0.00 0.00 0.00
20260506203721 69 58 3.5 4.3 0.00 0.00 0.00
20260506202719 70 39 4.3 7.8 0.00 0.00 0.00
20260506202220 69 82 6.1 4.3 0.00 0.00 0.00
20260506201718 69 44 5.2 6.1 0.00 0.00 0.00
20260506201218 69 87 5.2 2.6 0.00 0.00 0.00
20260506200719 68 37 7.8 5.2 0.00 0.00 0.00
20260506200216 69 63 6.1 7.0 0.00 0.00 0.00
20260506195717 68 39 6.1 5.2 0.00 0.00 0.00
20260506195217 67 330 6.1 4.3 0.00 0.00 0.00
20260506194715 67 60 8.7 6.1 0.00 0.00 0.00
20260506194215 67 14 7.8 5.2 0.00 0.00 0.00
20260506193716 67 17 7.8 5.2 0.00 0.00 0.00
20260506193214 67 10 5.2 0.0 0.00 0.00 0.00
20260506192714 65 72 7.0 8.7 0.00 0.00 0.00
20260506192214 64 70 5.2 3.5 0.00 0.00 0.00
20260506191711 64 18 7.8 8.7 0.00 0.00 0.00
20260506191212 63 68 6.1 6.1 0.00 0.00 0.00
20260506190712 63 80 6.1 4.3 0.00 0.00 0.00
20260506190210 63 30 6.1 4.3 0.00 0.00 0.00
20260506185709 64 72 6.1 7.0 0.00 0.00 0.00
20260506184707 63 94 4.3 5.2 0.00 0.00 0.00
20260506184208 62 60 7.8 7.8 0.00 0.00 0.00
20260506183708 62 65 7.8 6.1 0.00 0.00 0.00
20260506183206 63 66 6.1 6.1 0.00 0.00 0.00
20260506182706 63 3 7.8 7.8 0.00 0.00 0.00
20260506182207 63 62 7.8 6.1 0.00 0.00 0.00
20260506181704 63 77 5.2 6.1 0.00 0.00 0.00
20260506181205 64 23 5.2 7.0 0.00 0.00 0.00
20260506180705 63 28 4.3 2.6 0.00 0.00 0.00
20260506180203 63 86 5.2 4.3 0.00 0.00 0.00
20260506175703 63 30 7.0 6.1 0.00 0.00 0.00
20260506175204 63 39 6.1 6.1 0.00 0.00 0.00
20260506174701 62 51 5.2 4.3 0.00 0.00 0.00
20260506174202 64 4 7.0 6.1 0.00 0.00 0.00
20260506174022 63 30 6.1 6.1 0.00 0.00 0.00
20260506173702 63 30 6.1 6.1 0.00 0.00 0.00
20260506173200 63 13 3.5 7.8 0.00 0.00 0.00
20260506172700 63 10 6.1 4.3 0.00 0.00 0.00
20260506172201 63 24 4.3 5.2 0.00 0.00 0.00
20260506171659 62 24 6.1 6.1 0.00 0.00 0.00
20260506171159 62 34 2.6 1.7 0.00 0.00 0.00
20260506170700 63 339 7.0 7.8 0.00 0.00 0.00
20260506170157 63 329 7.8 6.1 0.00 0.00 0.00
20260506165658 62 352 7.8 8.7 0.00 0.00 0.00
20260506165158 61 338 8.7 7.8 0.00 0.00 0.00
20260506164743 62 353 3.5 4.3 0.00 0.00 0.00
20260506164656 62 353 3.5 4.3 0.00 0.00 0.00
20260506164156 62 32 8.7 7.0 0.00 0.00 0.00
20260506163656 61 359 5.2 5.2 0.00 0.00 0.00
20260506163155 61 359 6.1 4.3 0.00 0.00 0.00
20260506162654 61 343 7.0 5.2 0.00 0.00 0.00
20260506162155 61 338 7.0 7.8 0.00 0.00 0.00
20260506161653 60 11 7.8 6.1 0.00 0.00 0.00
20260506161153 60 346 6.1 4.3 0.00 0.00 0.00
20260506160654 59 4 6.1 6.1 0.00 0.00 0.00
20260506160151 59 3 7.0 8.7 0.00 0.00 0.00
20260506155652 58 14 7.0 7.0 0.00 0.00 0.00
20260506155152 58 4 5.2 7.8 0.00 0.00 0.00
20260506154806 57 353 5.2 2.6 0.00 0.00 0.00
20260506154650 57 353 5.2 2.6 0.00 0.00 0.00
20260506154150 57 350 5.2 5.2 0.00 0.00 0.00
20260506153650 57 39 6.1 6.1 0.00 0.00 0.00
20260506153148 57 39 5.2 7.0 0.00 0.00 0.00
20260506152648 57 24 6.1 6.1 0.00 0.00 0.00
20260506152149 56 20 7.8 6.1 0.00 0.00 0.00
20260506151646 57 333 7.8 7.8 0.00 0.00 0.00
20260506151147 56 359 8.7 7.0 0.00 0.00 0.00
20260506150647 57 328 8.7 7.8 0.00 0.00 0.00
20260506150145 57 329 7.8 8.7 0.00 0.00 0.00
20260506145645 56 323 8.7 7.8 0.00 0.00 0.00
20260506145146 56 326 7.8 7.8 0.00 0.00 0.00
20260506144144 56 330 7.0 6.1 0.00 0.00 0.00
20260506143645 55 328 7.8 5.2 0.00 0.00 0.00
20260506143403 55 335 9.6 7.8 0.00 0.00 0.00
20260506143142 55 335 9.6 7.8 0.00 0.00 0.00
20260506142643 55 322 7.8 8.7 0.00 0.00 0.00
20260506142143 54 316 9.6 7.0 0.00 0.00 0.00
20260506141641 54 314 6.1 6.1 0.00 0.00 0.00
20260506141141 54 345 8.7 7.8 0.00 0.00 0.00
20260506140642 54 25 7.8 6.1 0.00 0.00 0.00
20260506140139 54 3 8.7 10.4 0.00 0.00 0.00
20260506135640 53 350 8.7 10.4 0.00 0.00 0.00
20260506135140 53 359 7.8 7.8 0.00 0.00 0.00
20260506134638 53 345 8.7 9.6 0.00 0.00 0.00
20260506134138 53 353 7.8 8.7 0.00 0.00 0.00
20260506133639 53 354 8.7 8.7 0.00 0.00 0.00
20260506133136 53 1 9.6 11.3 0.00 0.00 0.00
20260506132638 53 349 7.8 7.8 0.00 0.00 0.00
20260506132137 53 10 8.7 7.0 0.00 0.00 0.00
20260506131635 53 359 7.0 7.0 0.00 0.00 0.00
20260506131135 52 18 7.8 7.8 0.00 0.00 0.00
20260506130636 52 38 10.4 10.4 0.00 0.00 0.00
20260506130133 52 18 11.3 9.6 0.00 0.00 0.00
20260506125634 53 336 10.4 9.6 0.00 0.00 0.00
20260506125135 53 6 8.7 9.6 0.00 0.00 0.00
20260506124632 54 39 7.8 7.0 0.00 0.00 0.00
20260506124133 53 10 5.2 5.2 0.00 0.00 0.00
20260506123633 53 35 6.1 7.0 0.00 0.00 0.00
20260506123131 53 30 7.0 5.2 0.00 0.00 0.00
20260506122631 54 14 7.0 6.1 0.00 0.00 0.00
20260506122132 54 325 8.7 7.8 0.00 0.00 0.00
20260506121630 54 41 7.0 7.0 0.00 0.00 0.00
20260506121130 54 27 6.1 7.8 0.00 0.00 0.00
20260506120631 54 4 7.8 5.2 0.00 0.00 0.00
20260506120128 54 18 10.4 9.6 0.00 0.00 0.00
20260506115629 54 0 9.6 7.8 0.00 0.00 0.00
20260506115129 55 335 7.8 7.8 0.00 0.00 0.00
20260506114627 56 100 2.6 5.2 0.00 0.00 0.00
20260506114128 56 20 5.2 4.3 0.00 0.00 0.00
20260506113706 56 14 7.8 7.0 0.00 0.00 0.00
20260506113628 56 14 7.8 7.0 0.00 0.00 0.00
20260506113538 56 28 7.8 7.0 0.00 0.00 0.00
20260506113126 56 28 7.8 7.0 0.00 0.00 0.00
20260506112626 57 39 8.7 7.8 0.00 0.00 0.00
20260506112126 57 4 9.6 7.0 0.00 0.00 0.00
20260506111623 57 347 8.7 10.4 0.00 0.00 0.00
20260506111124 57 342 11.3 7.8 0.00 0.00 0.00
20260506110624 57 340 7.0 7.0 0.00 0.00 0.00
20260506110122 57 345 7.0 7.0 0.00 0.00 0.00
20260506105623 58 27 6.1 6.1 0.00 0.00 0.00
20260506105123 57 21 7.0 6.1 0.00 0.00 0.00
20260506104621 57 10 6.1 7.0 0.00 0.00 0.00
20260506104121 58 359 5.2 6.1 0.00 0.00 0.00
20260506103622 58 20 7.0 6.1 0.00 0.00 0.00
20260506103120 58 23 5.2 6.1 0.00 0.00 0.00
20260506102620 58 1 7.0 7.8 0.00 0.00 0.00
20260506102121 58 11 6.1 7.0 0.00 0.00 0.00
20260506101618 58 28 7.0 6.1 0.00 0.00 0.00
20260506101119 59 350 6.1 5.2 0.00 0.00 0.00
20260506100619 59 17 6.1 5.2 0.00 0.00 0.00
20260506100117 58 352 7.0 7.8 0.00 0.00 0.00
20260506095617 58 356 7.0 6.1 0.00 0.00 0.00
20260506095118 59 352 6.1 4.3 0.00 0.00 0.00
20260506094616 59 354 5.2 7.0 0.00 0.00 0.00
20260506094116 59 326 5.2 5.2 0.00 0.00 0.00
20260506093617 59 10 5.2 5.2 0.00 0.00 0.00
20260506093114 59 329 6.1 6.1 0.00 0.00 0.00
20260506092615 59 321 7.0 5.2 0.00 0.00 0.00
20260506092115 59 326 3.5 6.1 0.00 0.00 0.00
20260506091613 59 343 5.2 6.1 0.00 0.00 0.00
20260506091114 59 323 6.1 5.2 0.00 0.00 0.00
20260506090614 60 338 4.3 4.3 0.00 0.00 0.00
20260506090112 60 359 6.1 7.0 0.00 0.00 0.00
20260506085930 60 354 7.0 6.1 0.00 0.00 0.00
20260506085613 60 354 7.0 6.1 0.00 0.00 0.00
20260506085113 61 8 7.8 8.7 0.00 0.00 0.00
20260506084611 61 7 6.1 4.3 0.00 0.00 0.00
20260506084112 61 359 7.8 5.2 0.00 0.00 0.00
20260506083612 61 0 8.7 7.8 0.00 0.00 0.00
20260506083110 62 14 7.0 5.2 0.00 0.00 0.00
20260506082610 62 347 7.0 6.1 0.00 0.00 0.00
20260506082111 62 353 5.2 5.2 0.00 0.00 0.00
20260506081608 62 359 5.2 7.0 0.00 0.00 0.00
20260506081109 63 356 7.0 6.1 0.00 0.00 0.00
20260506080609 63 7 7.8 6.1 0.00 0.00 0.00
20260506080107 63 13 7.8 8.7 0.00 0.00 0.00
20260506073104 65 4 5.2 7.0 0.00 0.00 0.00
20260506072605 66 35 7.8 8.7 0.00 0.00 0.00
20260506072105 66 13 7.8 8.7 0.00 0.00 0.00
20260506071603 66 25 8.7 8.7 0.00 0.00 0.00
20260506071103 67 17 7.0 8.7 0.00 0.00 0.00
20260506070604 67 21 6.1 7.8 0.00 0.00 0.00
20260506062100 68 44 5.2 7.0 0.00 0.00 0.00
20260506061558 69 20 7.0 6.1 0.00 0.00 0.00
20260506061058 69 13 6.1 4.3 0.00 0.00 0.00
20260506060559 69 21 7.8 7.0 0.00 0.00 0.00
20260506051053 69 226 0.0 0.0 0.00 0.00 0.00
20260506050554 69 226 0.0 0.0 0.00 0.00 0.00
20260506045052 69 239 0.0 0.0 0.00 0.00 0.00
20260506044550 69 302 0.9 0.0 0.00 0.00 0.00
20260506044051 69 326 3.5 1.7 0.00 0.00 0.00
20260506043551 70 253 0.0 0.0 0.00 0.00 0.00
20260506043049 71 253 0.0 0.0 0.00 0.00 0.00
20260506042639 72 253 0.0 0.0 0.00 0.00 0.00
20260506042549 71 253 0.0 0.0 0.00 0.00 0.00
20260506042050 72 253 0.0 0.0 0.00 0.00 0.00
20260506041548 71 253 0.0 0.0 0.00 0.00 0.00
20260506041048 71 253 0.0 0.0 0.00 0.00 0.00
20260506040549 72 253 0.0 0.0 0.00 0.00 0.00
20260506040046 72 253 0.0 0.0 0.00 0.00 0.00
20260506035547 72 253 0.0 0.0 0.00 0.00 0.00
20260506035047 73 253 0.0 0.0 0.00 0.00 0.00
20260506034545 73 253 0.0 0.0 0.00 0.00 0.00
20260506034045 74 253 0.0 0.0 0.00 0.00 0.00
20260506033546 75 253 0.0 0.0 0.00 0.00 0.00
20260506033043 75 253 0.0 0.0 0.00 0.00 0.00
20260506032544 75 253 0.0 0.0 0.00 0.00 0.00
20260506032044 75 253 0.0 0.0 0.00 0.00 0.00
20260506031542 76 253 0.0 0.0 0.00 0.00 0.00
20260506031042 76 253 0.0 0.0 0.00 0.00 0.00
20260506030543 77 253 0.0 0.0 0.00 0.00 0.00
20260506030040 77 253 0.0 0.0 0.00 0.00 0.00
20260506025541 77 253 0.0 0.0 0.00 0.00 0.00
20260506025041 78 253 0.0 0.0 0.00 0.00 0.00
20260506024538 78 283 1.7 1.7 0.00 0.00 0.00
20260506024038 78 263 2.6 2.6 0.00 0.00 0.00
20260506023539 78 273 3.5 4.3 0.00 0.00 0.00
20260506023036 78 287 3.5 3.5 0.00 0.00 0.00
20260506022537 79 281 4.3 2.6 0.00 0.00 0.00
20260506022037 79 291 4.3 2.6 0.00 0.00 0.00
20260506021535 79 288 2.6 0.9 0.00 0.00 0.00
20260506021204 80 259 0.0 0.9 0.00 0.00 0.00
20260506021035 80 259 0.0 0.9 0.00 0.00 0.00
20260506020536 80 297 1.7 0.9 0.00 0.00 0.00
20260506020033 80 301 3.5 3.5 0.00 0.00 0.00
20260506015534 80 298 2.6 2.6 0.00 0.00 0.00
20260506015034 80 291 2.6 3.5 0.00 0.00 0.00
20260506014532 81 293 3.5 2.6 0.00 0.00 0.00
20260506014032 82 290 3.5 2.6 0.00 0.00 0.00
20260506013533 82 294 4.3 3.5 0.00 0.00 0.00
20260506013030 82 284 4.3 5.2 0.00 0.00 0.00
20260506012531 83 281 5.2 4.3 0.00 0.00 0.00
20260506012031 83 283 6.1 5.2 0.00 0.00 0.00
20260506011529 84 280 4.3 6.1 0.00 0.00 0.00
20260506011029 85 277 4.3 3.5 0.00 0.00 0.00
20260506010529 85 304 5.2 3.5 0.00 0.00 0.00
20260506010027 86 290 7.0 6.1 0.00 0.00 0.00